• In Netherlands
  • List of Countries
  • For 7 days
  • Water Temperature
  • Satellite Maps
  • Weather Map
  • Weather Widgets
  • user-avatar
    Login

    Hourly Weather Ischgl

    Today, 22 May, Monday

    Time Temperature Precipitation Wind Pressure Humidity
    00:00 0°C° 0 mm 1 mps 575 mmHg 95%
    01:00 +1°C° 0 mm 1 mps 575 mmHg 96%
    02:00 +1°C° 0 mm 1 mps 575 mmHg 96%
    03:00 +1°C° 0 mm 1 mps 575 mmHg 96%
    04:00 -2°C° 0 mm 2 mps 574 mmHg 96%
    05:00 +2°C° 0 mm 1 mps 575 mmHg 92%
    06:00 +3°C° 0 mm 1 mps 576 mmHg 89%
    07:00 +5°C° 0 mm 1 mps 577 mmHg 85%
    08:00 +7°C° 0 mm 1 mps 577 mmHg 79%
    09:00 +8°C° 0 mm 1 mps 578 mmHg 73%
    10:00 +10°C° 0 mm 1 mps 579 mmHg 67%
    11:00 +11°C° 0.2 mm 1 mps 579 mmHg 64%
    12:00 +11°C° 0.2 mm 1 mps 579 mmHg 62%
    13:00 +12°C° 0.2 mm 1 mps 579 mmHg 60%
    14:00 +11°C° 0.3 mm 1 mps 579 mmHg 62%
    15:00 +11°C° 0.3 mm 1 mps 578 mmHg 64%
    16:00 +10°C° 0.3 mm 2 mps 578 mmHg 67%
    17:00 +9°C° 0.1 mm 1 mps 577 mmHg 73%
    18:00 +8°C° 0.1 mm 1 mps 577 mmHg 80%
    19:00 +6°C° 0.1 mm 1 mps 576 mmHg 87%
    20:00 +4°C° 0 mm 1 mps 575 mmHg 89%
    21:00 +2°C° 0 mm 1 mps 574 mmHg 91%
    22:00 0°C° 0 mm 1 mps 573 mmHg 94%
    23:00 0°C° 0 mm 1 mps 573 mmHg 93%

    Tomorrow, 23 May, Tuesday

    Time Temperature Precipitation Wind Pressure Humidity
    00:00 0°C° 0 mm 1 mps 573 mmHg 93%
    01:00 0°C° 0 mm 1 mps 573 mmHg 92%
    02:00 0°C° 0 mm 1 mps 573 mmHg 91%
    03:00 -1°C° 0 mm 1 mps 573 mmHg 90%
    04:00 -1°C° 0 mm 1 mps 573 mmHg 89%
    05:00 +2°C° 0 mm 1 mps 574 mmHg 84%
    06:00 +4°C° 0 mm 1 mps 576 mmHg 79%
    07:00 +6°C° 0 mm 1 mps 577 mmHg 74%
    08:00 +8°C° 0 mm 1 mps 578 mmHg 64%
    09:00 +10°C° 0 mm 1 mps 579 mmHg 55%
    10:00 +11°C° 0 mm 1 mps 580 mmHg 45%
    11:00 +12°C° 0 mm 2 mps 580 mmHg 43%
    12:00 +13°C° 0 mm 2 mps 580 mmHg 40%
    13:00 +14°C° 0 mm 2 mps 581 mmHg 38%
    14:00 +13°C° 0 mm 2 mps 580 mmHg 39%
    15:00 +13°C° 0 mm 2 mps 580 mmHg 41%
    16:00 +13°C° 0 mm 2 mps 580 mmHg 43%
    17:00 +10°C° 0 mm 2 mps 579 mmHg 54%
    18:00 +8°C° 0 mm 2 mps 578 mmHg 66%
    19:00 +7°C° 0 mm 1 mps 578 mmHg 78%
    20:00 +5°C° 0 mm 1 mps 577 mmHg 83%
    21:00 +3°C° 0 mm 1 mps 576 mmHg 89%
    22:00 +1°C° 0 mm 1 mps 575 mmHg 94%
    23:00 +1°C° 0 mm 1 mps 575 mmHg 95%

    Day after tomorrow, 24 May, Wednesday

    Time Temperature Precipitation Wind Pressure Humidity
    00:00 +1°C° 0 mm 1 mps 576 mmHg 95%
    01:00 +2°C° 0 mm 1 mps 576 mmHg 96%
    02:00 +1°C° 0 mm 1 mps 575 mmHg 95%
    03:00 +1°C° 0 mm 1 mps 575 mmHg 95%
    04:00 0°C° 0 mm 1 mps 575 mmHg 95%
    05:00 +2°C° 0 mm 1 mps 576 mmHg 90%
    06:00 +4°C° 0 mm 1 mps 577 mmHg 84%
    07:00 +6°C° 0 mm 1 mps 578 mmHg 79%
    08:00 +8°C° 0 mm 1 mps 579 mmHg 74%
    09:00 +9°C° 0 mm 1 mps 579 mmHg 69%
    10:00 +10°C° 0 mm 2 mps 580 mmHg 64%
    11:00 +10°C° 0.1 mm 2 mps 580 mmHg 62%
    12:00 +10°C° 0.1 mm 2 mps 580 mmHg 60%
    13:00 +12°C° 0.1 mm 2 mps 580 mmHg 58%
    14:00 +10°C° 0.2 mm 2 mps 579 mmHg 60%
    15:00 +10°C° 0.2 mm 2 mps 579 mmHg 63%
    16:00 +9°C° 0.2 mm 2 mps 579 mmHg 65%
    17:00 +8°C° 0.2 mm 2 mps 578 mmHg 73%
    18:00 +6°C° 0.2 mm 2 mps 577 mmHg 80%
    19:00 +5°C° 0.2 mm 2 mps 577 mmHg 87%
    20:00 +4°C° 0 mm 2 mps 576 mmHg 90%
    21:00 +3°C° 0 mm 2 mps 576 mmHg 93%
    22:00 +2°C° 0 mm 2 mps 576 mmHg 96%
    23:00 +1°C° 0 mm 2 mps 576 mmHg 96%

    25 May, Thursday

    Time Temperature Precipitation Wind Pressure Humidity
    00:00 +1°C° 0 mm 1 mps 575 mmHg 96%
    01:00 0°C° 0 mm 1 mps 575 mmHg 96%
    02:00 0°C° 0 mm 1 mps 574 mmHg 96%
    03:00 0°C° 0 mm 1 mps 574 mmHg 96%
    04:00 -1°C° 0 mm 1 mps 574 mmHg 96%
    05:00 +1°C° 0 mm 1 mps 575 mmHg 91%
    06:00 +2°C° 0 mm 1 mps 576 mmHg 85%
    07:00 +4°C° 0 mm 1 mps 577 mmHg 80%
    08:00 +6°C° 0 mm 1 mps 578 mmHg 69%
    09:00 +8°C° 0 mm 1 mps 579 mmHg 58%
    10:00 +9°C° 0 mm 2 mps 580 mmHg 47%
    11:00 +10°C° 0 mm 2 mps 580 mmHg 44%
    12:00 +12°C° 0 mm 2 mps 580 mmHg 41%
    13:00 +13°C° 0 mm 2 mps 581 mmHg 38%
    14:00 +13°C° 0 mm 2 mps 580 mmHg 41%
    15:00 +12°C° 0 mm 2 mps 580 mmHg 43%
    16:00 +11°C° 0 mm 3 mps 580 mmHg 46%
    17:00 +9°C° 0 mm 2 mps 579 mmHg 56%
    18:00 +8°C° 0 mm 2 mps 578 mmHg 67%
    19:00 +6°C° 0 mm 2 mps 578 mmHg 78%
    20:00 +5°C° 0 mm 1 mps 577 mmHg 84%
    21:00 +3°C° 0 mm 1 mps 576 mmHg 90%
    22:00 +2°C° 0 mm 1 mps 576 mmHg 96%
    23:00 +1°C° 0 mm 1 mps 575 mmHg 96%

    26 May, Friday

    Time Temperature Precipitation Wind Pressure Humidity
    00:00 0°C° 0 mm 1 mps 574 mmHg 95%
    01:00 -1°C° 0 mm 1 mps 574 mmHg 94%
    02:00 -1°C° 0 mm 1 mps 574 mmHg 92%
    03:00 -1°C° 0 mm 1 mps 573 mmHg 89%
    04:00 -2°C° 0 mm 1 mps 573 mmHg 87%
    05:00 +1°C° 0 mm 1 mps 575 mmHg 78%
    06:00 +4°C° 0 mm 1 mps 576 mmHg 70%
    07:00 +6°C° 0 mm 1 mps 577 mmHg 61%
    08:00 +8°C° 0 mm 1 mps 578 mmHg 55%
    09:00 +9°C° 0 mm 2 mps 579 mmHg 49%
    10:00 +12°C° 0 mm 2 mps 580 mmHg 43%
    11:00 +12°C° 0 mm 2 mps 580 mmHg 42%
    12:00 +13°C° 0 mm 2 mps 580 mmHg 41%
    13:00 +14°C° 0 mm 2 mps 580 mmHg 40%
    14:00 +14°C° 0 mm 2 mps 580 mmHg 43%
    15:00 +12°C° 0 mm 3 mps 579 mmHg 46%
    16:00 +12°C° 0 mm 3 mps 579 mmHg 50%
    17:00 +10°C° 0 mm 2 mps 578 mmHg 60%
    18:00 +9°C° 0 mm 2 mps 578 mmHg 71%
    19:00 +7°C° 0 mm 2 mps 577 mmHg 81%
    20:00 +6°C° 0 mm 1 mps 576 mmHg 86%
    21:00 +4°C° 0 mm 1 mps 576 mmHg 92%
    22:00 +2°C° 0 mm 1 mps 575 mmHg 97%
    23:00 +2°C° 0 mm 1 mps 575 mmHg 97%

    27 May, Saturday

    Time Temperature Precipitation Wind Pressure Humidity
    00:00 +2°C° 0 mm 1 mps 575 mmHg 96%
    01:00 +2°C° 0 mm 1 mps 575 mmHg 96%
    02:00 +1°C° 0 mm 1 mps 574 mmHg 95%
    03:00 +1°C° 0 mm 1 mps 574 mmHg 94%
    04:00 +1°C° 0 mm 1 mps 574 mmHg 93%
    05:00 +3°C° 0 mm 1 mps 576 mmHg 86%
    06:00 +5°C° 0 mm 1 mps 577 mmHg 79%
    07:00 +7°C° 0 mm 0 mps 578 mmHg 72%
    08:00 +10°C° 0 mm 1 mps 579 mmHg 62%
    09:00 +12°C° 0 mm 1 mps 580 mmHg 52%
    10:00 +14°C° 0 mm 1 mps 581 mmHg 42%
    11:00 +14°C° 0 mm 1 mps 581 mmHg 41%
    12:00 +15°C° 0 mm 2 mps 582 mmHg 40%
    13:00 +16°C° 0 mm 2 mps 582 mmHg 39%
    14:00 +15°C° 0 mm 2 mps 582 mmHg 42%
    15:00 +15°C° 0 mm 2 mps 581 mmHg 45%
    16:00 +14°C° 0 mm 2 mps 581 mmHg 49%
    17:00 +13°C° 0.1 mm 2 mps 580 mmHg 59%
    18:00 +11°C° 0.1 mm 1 mps 580 mmHg 70%
    19:00 +9°C° 0.1 mm 1 mps 579 mmHg 80%
    20:00 +7°C° 0 mm 1 mps 578 mmHg 86%
    21:00 +5°C° 0 mm 1 mps 577 mmHg 91%
    22:00 +1°C° 0 mm 0 mps 576 mmHg 96%
    23:00 +3°C° 0 mm 1 mps 577 mmHg 96%
    Show more